Regional Weather Roundup
Issued by NWS Wakefield, VA

Home | Current Version | Previous Version | Text Only | Print | Product List | Glossary Off
Versions: 1 2 3 4 5 6 7 8 9 10 11 12 13 14 15 16 17 18 19 20 21 22 23 24 25 26 27 28 29 30 31 32 33 34 35 36 37 38 39 40 41 42 43 44 45 46 47 48 49 50

000
ASUS41 KAKQ 261310
RWRAKQ

REGIONAL WEATHER ROUNDUP
NATIONAL WEATHER SERVICE WAKEFIELD VA
800 AM EST WED NOV 26 2014

Note: "fair" indicates few or no clouds below 12,000 feet with no
significant weather and/or obstructions to visibility. * = Denotes
station may not report precipitation (e.g., rain,snow,etc.),
thunder or fog.

VAZ042-051-052>054-056-261400-
NORTHERN VIRGINIA

CITY           SKY/WX    TMP DP  RH WIND       PRES   REMARKS
WASH NATIONAL  RAIN      45  38  76 NE16      30.08S
DULLES         RAIN      39  37  93 NE10      30.06F FOG
FORT BELVOIR   RAIN      42  39  88 N8        30.05S FOG
QUANTICO       LGT RAIN  43  39  86 NE17G24   30.07F FOG
FREDERICKSBRG* RAIN      43  43  99 NE7G20    30.05R
STAFFORD*      RAIN      42  42 100 NE7       30.08S
WARRENTON      RAIN      41  41 100 N6        30.08R
CULPEPER*      RAIN      43  41  93 N6        30.10R
MANASSAS*      LGT RAIN N/A N/A N/A N9        30.05F
LEESBURG*      RAIN      39  39 100 NE8       30.06F
WINCHESTER     RAIN      36  32  87 NW5       30.05F
FRONT ROYAL*   CLOUDY    32  32 100 CALM      30.08S VSB 3/4
LURAY*         LGT SNOW  34  34 100 NE8       30.04F
$$

VAZ048-049-060>072-079>083-261400-
CENTRAL AND SOUTH CENTRAL VIRGINIA

CITY           SKY/WX    TMP DP  RH WIND       PRES   REMARKS
RICHMOND       RAIN      45  41  86 N14G21    30.01R FOG
CHESTERFIELD*  CLOUDY    45  32  61 N8        30.04R
PETERSBURG*    RAIN      45  44  95 N13       30.03R
HANOVER        HVY RAIN  43  41  93 VRB6      30.06R FOG
TAPPAHANNOCK*  HVY RAIN  44  40  87 N7        30.03R
QUINTON*       CLOUDY    43  42  95 N12G17    29.99R
CHARLOTTSVILLE RAIN      42  39  89 NE12      30.05R FOG
GORDONSVILLE*  CLOUDY    41  40  95 NE8       30.07R FOG
ORANGE*        HVY RAIN  43  41  93 NW7       30.09R
LOUISA*        RAIN      41  39  93 N9        30.06R
BUMPASS*       CLOUDY    41  39  93 N3        30.06R
FARMVILLE*     RAIN      43  43 100 NE8       29.97F
CREWE*         CLOUDY    43  41  94 NE7       29.99F
FORT PICKETT*  CLOUDY    42  42  98 N12G21    29.98F
CHASE CITY*    CLOUDY    45  44  99 NE6       30.00S
CLARKSVILLE*   CLOUDY    43  43 100 N13       29.99R
SOUTH HILL*    CLOUDY    42  41  96 N12G18    30.02F
LAWRENCEVILLE* CLOUDY    43  42  97 N6        29.96F
$$

VAZ088>098-261400-
SOUTHEAST VIRGINIA

CITY           SKY/WX    TMP DP  RH WIND       PRES   REMARKS
NORFOLK        RAIN      49  46  90 N22G33    29.90R FOG
VIRGINIA BEACH LGT RAIN  51  49  92 NE24G32   29.87F FOG
NORFOLK NAVAL  LGT RAIN  50  46  86 N25       29.94R FOG
WEST POINT*    CLOUDY    46  44  90 N9        30.00R
SALUDA*        CLOUDY    44  42  94 N15       29.96F
NEWPORT NEWS   RAIN      49  44  83 NE16      29.94S
LANGLEY AFB    LGT RAIN  46 N/A N/A N21G26    29.92F
FORT EUSTIS    RAIN      46  46 100 NE14G20   29.92F FOG
WILLIAMSBURG*  CLOUDY    46  46 100 NE7       29.96F VSB 1
HR EXEC AP*    CLOUDY    46  45  93 N7G21     29.92S
FRANKLIN*      CLOUDY    45  45 100 N7        29.94S
WAKEFIELD      HVY RAIN  45  42  89 N8        29.97R FOG
$$

VAZ020-022-025-037-045-261400-
WEST CENTRAL AND SOUTHWEST VIRGINIA

CITY           SKY/WX    TMP DP  RH WIND       PRES   REMARKS
STAUNTON*      LGT SNOW  33  32  94 CALM      30.07R VSB 3/4
WAYNESBORO*    CLOUDY    32  32  99 N6        30.01F VSB 1
HOT SPRINGS VA SNOW      31  31 100 CALM      29.89F VSB<1/4
LYNCHBURG      RAIN      40  38  93 NE13G23   30.01F FOG
DANVILLE       LGT RAIN  44  40  85 NE10      30.01R
SOUTH BOSTON*  CLOUDY    43  41  93 NE10      30.00R
MARTINSVILLE   RAIN      41  41 100 N5        30.02R
ROANOKE        FLURRIES  34  32  92 N5        30.05R
BLACKSBURG     LGT SNOW  34  34 100 CALM      30.01R VSB 1
DUBLIN*        SNOW      34  34 100 CALM      30.01R VSB 1/2
MARION*        SNOW      34  33  96 CALM      30.02R VSB 1/4
HILLSVILLE*    SNOW      32  32  99 N3        29.97R VSB 1/4
RICHLANDS*     SNOW      36  34  93 CALM      29.99R VSB 1/4
WISE*          LGT SNOW  34  34 100 CALM      29.97F
ABINGDON*      RAIN      38  36  90 E3        30.01R
$$

MDZ021>025-VAZ099-100-261400-
SOUTHERN MARYLAND AND THE DELMARVA PENINSULA

CITY           SKY/WX    TMP DP  RH WIND       PRES   REMARKS
PATUXENT RIVER LGT RAIN  44  41  89 NE16      30.00F FOG
BAY BRIDGE APT RAIN      41  41 100 N10G16    30.07F
LEONARDTOWN    CLOUDY    43  39  87 NE8       30.03F
DOVER          HVY RAIN  42  42 100 N13G24    30.05S FOG
GEORGETOWN     RAIN      44  42  93 NE16G28   30.03F FOG
EASTON         RAIN      45  45 100 NE16      30.08F FOG
CAMBRIDGE      CLOUDY    45  41  87 NE9G16    30.02F
SALISBURY      HVY RAIN  46  43  89 N14       30.01S FOG
OCEAN CITY     RAIN      46  44  93 NE20G30   29.98F FOG
WALLOPS ISLAND HVY RAIN  45  44  97 NE17      29.96F FOG
ACCOMACK*      LGT RAIN  45  43  93 NE14      29.94S
$$

NCZ012>017-030>032-261400-
NORTH CENTRAL AND EASTERN NORTH CAROLINA

CITY           SKY/WX    TMP DP  RH WIND       PRES   REMARKS
ROANOKE RAPIDS HVY RAIN  43  43 100 N13G22    29.92S
RALEIGH        RAIN      46  42  86 NE16G30   29.90S FOG
ELIZABETH CITY RAIN      55  51  86 NE21G29   29.78F FOG
AHOSKIE*       RAIN      44  42  95 N15       29.90F
EDENTON*       RAIN      50  50  99 N18       29.82R
CURRITUCK*     RAIN      53  51  94 N18G26    29.82F
KILL DEVIL HLS RAIN      60  60  99 N8        29.76F
MANTEO         RAIN      64  63  97 CALM      29.78F
CAPE HATTERAS  LGT RAIN  70  69  97 S18G26    29.78F FOG
TARBORO*       LGT RAIN  46  44  93 N12G30    29.88F
GOLDSBORO      LGT RAIN  48  48 100 N15G23    29.81R FOG
WASHINGTON     CLOUDY    54  52  94 N24       29.78S
GREENVILLE     LGT RAIN  46  46 100 N20G28    29.85F
NEW BERN       LGT RAIN  66  63  90 SE7G16    29.75F
WILMINGTON     CLOUDY    73  66  78 S15G24    29.72F
$$

VAZ048-261400-
ELSEWHERE

CITY           SKY/WX    TMP DP  RH WIND       PRES   REMARKS
HARRISBURG PA  LGT RAIN  39  35  86 NE5       30.10S FOG
BALTIMORE      RAIN      42  39  89 NE9       30.07S FOG
ANNAPOLIS      LGT RAIN  42  38  85 NE10      30.06F FOG
ANDREWS AFB    RAIN      41  39  92 NE16      30.04F FOG
PHILADELPHIA   LGT RAIN  41  37  86 NE13G22   30.08F FOG
WILDWOOD NJ*   CLOUDY    43  37  81 NE10      30.01F
HENDERSON NC   RAIN      44  42  92 N10G20    29.98R
GREENSBORO     RAIN      43  42  97 N6        29.96R FOG
ROCKY MOUNT    RAIN      46  44  93 N21G28    29.87F FOG
$$

VAZ100-261400-
MARINE

STATION/POSITION TIME  TEMP    WIND        PRES    WAVE   SWELL
                       AIR SEA DIR/SP/G            HT/PER HT/PER
                 (UTC) (F)     (DEG/KT/KT) (MB)    (FT/S) (FT/S)
CAPE MAY NJ      1300   43 50   40/  5/ 10 1016.3S
LEWES DE         1300   45 50   40/ 22/ 26 1016.6R
15NM E FENWICK I 1300   48 55              1014.2F   6/ 6
OCEAN-CITY-INLET 1300   46 50   70/ 13/ 24 1014.9F
WACHAPREAGUE VA  1300   46 52   30/ 17/ 22 1013.6R
THOMAS POINT MD  1300   42 48   40/ 21/ 23 1018.5F
GOOSES REEF MD   1300   43 49   40/ 17/ 21 1017.2F   2/ 3
COVE POINT MD    1300   43      40/ 19/ 21 1016.0F
SOLOMONS ISLAND  1300      50                N/A
BISHOPS HEAD MD  1300   44 47   30/ 13/ 18 1015.6F
PINEY POINT MD   1300           50/  9/ 11   N/A
POTOMAC MD       1300   45 50   50/ 17/ 23 1014.8F   1/ 3
CAMBRIDGE MD     1300   44 46   40/ 13/ 15 1016.5F
LEWISETTA VA     1300   45 50   60/ 12/ 17 1015.4F
RAPPAHANNOCK LGT 1300           20/ 26/ 29 1014.3F
STINGRAY PT      1300   46 50   40/ 19/ 25 1015.4R   3/ 3
YORK RVR RNG VA  1300   46      40/ 24/ 28 1013.5R
YORKTOWN VA      1300   46 52   30/ 19/ 24 1014.2R
JAMESTOWN VA     1300   44 51   40/  8/ 16   N/A     0
DOMINION TERM VA 1300   47      80/  2/  6 1013.9R
KIPTOPEKE VA     1300      57   30/ 13/ 23   N/A
CHES BAY BRIDGE  1300   49 52   20/ 26/ 32 1011.2F
CAPE HENRY VA    1300   50      30/ 29/ 35 1010.7F
CHESAPEAKE LGHT  1200   51      50/ 33/ 37 1011.5F
WILLOUBY STN VA  1300   47      20/ 20/ 25 1011.5F
S CRANEY ISL VA  1300          350/ 26/ 31 1012.0F
CAPE HENRY BUOY  1200      56                N/A     8/ 6
1ST LANDING BUOY 1300   49 52   20/ 23/ 33 1012.3R   6/ 5
CAPE CHARLES BUO 1300      55                N/A     8/ 6   2/13
64NM E OF VA BCH 1300   64 67   60/ 17/ 21 1008.3F   8/ 7   3/13
DUCK PIER NC     1300   58 59   10/ 12/ 14 1007.8F
44100 DUCK FRF   1300      59                N/A     8/ 6   2/11
44056 DUCK FRF   1300      58                N/A     8/ 6
OREGON INLET NC  1300   65 57  170/ 13/ 17 1008.0F
HATTERAS NC      1300   72 62  170/ 16/ 24 1008.7F
DIAMOND SHLS NC  1300   75     160/ 25/ 31 1007.7F  10/ 8   2/14
CAPE LOOKOUT NC  1200   69     180/ 18/ 19 1008.4F
$$


USA.gov is the U.S. government's official web portal to all federal, state and local government web resources and services.